Location: Houhaj�rvi
(61.2833°N, 23.0000°E)
Time: 04:00:17
(UTC+00:00)

Cosmos 1378 Rocket - Pass Details

Date: 27 February 2020
Orbit: 602 x 627 km, 82.5° (Epoch: 02 April)

Event Time Altitude Azimuth Distance (km) Brightness Sun altitude
Rises 17:46:29 0° 346° (NNW) 2,872 7.3 -15.2°
Reaches altitude 10° 17:48:48 10° 353° (N) 1,964 6.4 -15.4°
Maximum altitude 17:52:58 44° 66° (ENE) 841 3.9 -15.9°
Enters shadow 17:54:42 29° 119° (ESE) 1,119 4.3 -16.1°
